This demonstration page uses our WeatherBlox Daily Observations layout. Learn more.

39.92423, -83.80882

Hourly Observations for May 7, 2016

Temp ( °F °C ) Dew Point ( °F °C ) Humidity (%) Winds ( mph kmh ) Pressure ( in mb ) Visibility ( mi km ) Precip ( " mm )
12:56 am 00:56 Clear 49 9.4 43 6.1 80 80 SSW 5 7 29.86 1011 10 16.0934 0 0
1:56 am 01:56 Clear 50 10 42 5.5 74 74 SSW 6 9 29.84 1011 10 16.0934 0 0
2:56 am 02:56 Clear 48 8.8 43 6.1 83 83 SSW 6 9 29.83 1010 10 16.0934 0 0
3:56 am 03:56 Cloudy 52 11.1 45 7.2 77 77 SSW 7 11 29.81 1010 10 16.0934 0 0
4:56 am 04:56 Clear 51 10.5 43 6.1 74 74 SSW 6 9 29.8 1009 10 16.0934 0 0
5:56 am 05:56 Clear 53 11.6 43 6.1 69 69 SSW 9 15 29.78 1009 10 16.0934 0 0
6:56 am 06:56 Sunny 54 12.2 44 6.6 69 69 S 7 11 29.77 1008 10 16.0934 0 0
7:56 am 07:56 Sunny 54 12.2 46 7.7 74 74 S 8 13 29.76 1008 10 16.0934 0 0
8:56 am 08:56 Sunny 58 14.4 48 8.8 69 69 SSW 10 17 29.75 1007 10 16.0934 0 0
9:56 am 09:56 Sunny 64 17.7 51 10.5 63 63 WSW 13 20 29.74 1007 10 16.0934 0 0
10:56 am 10:56 Sunny 64 17.7 53 11.6 68 68 WSW 9 15 29.73 1007 10 16.0934 0 0
11:56 am 11:56 Mostly Sunny 68 20 55 12.7 63 63 WSW 13 20 29.73 1007 10 16.0934 0 0
12:56 pm 12:56 Mostly Cloudy 68 20 54 12.2 61 61 WSW 9 15 29.72 1006 10 16.0934 0 0
1:56 pm 13:56 Mostly Cloudy 71 21.6 57 13.8 61 61 WSW 12 19 29.71 1006 10 16.0934 0 0
2:56 pm 14:56 Partly Cloudy 71 21.6 57 13.8 61 61 W 8 13 29.7 1006 10 16.0934 0 0.0254
3:56 pm 15:56 Sunny 76 24.4 58 14.4 54 54 W 15 24 29.68 1005 10 16.0934 0 0.0254
4:56 pm 16:56 Partly Cloudy 75 23.8 56 13.3 52 52 W 16 26 29.68 1005 10 16.0934 0 0
5:56 pm 17:56 Partly Cloudy 75 23.8 57 13.8 54 54 W 16 26 29.68 1005 10 16.0934 0 0
6:56 pm 18:56 Mostly Sunny 74 23.3 57 13.8 55 55 W 17 28 29.67 1005 10 16.0934 0 0
7:56 pm 19:56 Sunny 69 20.5 55 12.7 61 61 W 20 31 29.7 1006 10 16.0934 0 0
8:56 pm 20:56 Clear 66 18.8 54 12.2 66 66 W 23 37 29.74 1007 10 16.0934 0 0
9:56 pm 21:56 Clear 62 16.6 52 11.1 70 70 W 15 24 29.76 1008 10 16.0934 0 0
10:56 pm 22:56 Clear 59 15 43 6.1 56 56 WNW 9 15 29.78 1008 10 16.0934 0 0
11:56 pm 23:56 Clear 56 13.3 41 5 57 57 W 10 17 29.79 1009 10 16.0934 0 0

Powered by AerisWeather